Location: Brachstadt
(48.6975°N, 10.6755°E)
Time: 05:04:48
(UTC+00:00)

Cosmos 1627 Rocket - Pass Details

Date: 18 September 2020
Orbit: 951 x 1003 km, 82.9° (Epoch: 22 October)

Event Time Altitude Azimuth Distance (km) Brightness Sun altitude
Rises 19:42:12 0° 350° (N) 3,731 8.1 -22.6°
Reaches altitude 10° 19:44:44 10° 352° (N) 2,782 7.4 -23.0°
Maximum altitude 19:51:10 85° 81° (E) 1,014 4.4 -23.9°
Enters shadow 19:53:35 42° 167° (SSE) 1,409 5.0 -24.2°
